Location: Bonny Doon Airfield
(37.0704°N, 122.1252°W)
Time: 04:33:47
(UTC-07:00)

Tiangong 2 - Pass Details

Date: 16 October 2017
Orbit: 388 x 391 km, 42.8° (Epoch: 24 October)

Event Time Altitude Azimuth Distance (km) Brightness Sun altitude
Exits shadow 06:17:45 17° 311° (NW) 1,080 2.9 -12.7°
Maximum altitude 06:19:51 38° 13° (NNE) 615 2.2 -12.3°
Drops below altitude 10° 06:22:52 10° 84° (E) 1,417 5.4 -11.7°
Sets 06:25:01 0° 93° (E) 2,272 7.2 -11.2°
